GW1765 Weather Reports


Display with metric or nautical units.
time (UTC)temp
F
wind
direction
speed
MPH
gust
MPH
rain 1hr
in
rain 24hr
in
rain mn
in
humidity
%
barometer
mb
20260505230037 65 0 12.0 20.0 0.00 0.00 0.00 72 1029.4
20260505225035 65 356 12.0 19.0 0.00 0.00 0.00 72 1029.5
20260505224032 65 2 13.0 21.0 0.00 0.00 0.00 71 1029.4
20260505223027 65 6 10.0 16.0 0.00 0.00 0.00 72 1029.5
20260505222023 65 7 12.0 18.0 0.00 0.00 0.00 72 1029.4
20260505221020 64 359 11.0 15.0 0.00 0.00 0.00 72 1029.5
20260505220038 64 8 13.0 20.0 0.00 0.00 0.00 73 1029.5
20260505215115 63 1 12.0 17.0 0.00 0.00 0.00 76 1029.6
20260505214110 64 2 11.0 17.0 0.00 0.00 0.00 74 1029.6
20260505213107 63 359 11.0 18.0 0.00 0.00 0.00 79 1029.7
20260505212104 63 0 11.0 18.0 0.00 0.00 0.00 82 1029.8
20260505211100 61 356 10.0 16.0 0.00 0.00 0.00 84 1029.9
20260505210056 60 0 9.0 13.0 0.00 0.00 0.00 84 1030.0
20260505205053 60 354 10.0 16.0 0.00 0.00 0.00 84 1030.0
20260505204052 60 359 8.0 15.0 0.00 0.00 0.00 84 1030.0
20260505203048 60 9 9.0 15.0 0.00 0.00 0.00 84 1029.8
20260505202043 60 2 9.0 12.0 0.00 0.00 0.00 84 1029.7
20260505201040 60 347 9.0 14.0 0.00 0.00 0.00 84 1029.7
20260505200059 60 14 10.0 15.0 0.00 0.00 0.00 84 1029.7
20260505195033 59 360 9.0 14.0 0.00 0.00 0.00 83 1029.6
20260505194029 59 5 8.0 15.0 0.00 0.00 0.00 83 1029.6
20260505193027 59 352 9.0 14.0 0.00 0.00 0.00 83 1029.5
20260505192022 59 354 8.0 13.0 0.00 0.00 0.00 83 1029.5
20260505191019 59 12 9.0 14.0 0.00 0.00 0.00 83 1029.5
20260505190015 59 14 8.0 14.0 0.00 0.00 0.00 84 1029.6
20260505185113 59 22 7.0 11.0 0.00 0.00 0.00 84 1029.6
20260505183107 59 348 9.0 13.0 0.00 0.00 0.00 84 1029.6
20260505182125 59 351 7.0 11.0 0.00 0.00 0.00 85 1029.6
20260505181121 59 358 9.0 14.0 0.00 0.00 0.00 85 1029.7
20260505180055 59 359 9.0 15.0 0.00 0.00 0.00 85 1029.7
20260505175054 59 350 9.0 15.0 0.00 0.00 0.00 85 1029.7
20260505174048 59 12 8.0 13.0 0.00 0.00 0.00 86 1029.7
20260505173045 59 344 10.0 15.0 0.00 0.00 0.00 87 1029.8
20260505172041 59 345 10.0 17.0 0.00 0.00 0.00 88 1029.8
20260505171038 59 349 10.0 14.0 0.00 0.00 0.00 89 1029.7
20260505170056 59 315 8.0 11.0 0.00 0.00 0.00 90 1029.6
20260505165055 0 0.0 0.0 0.00 0.00 0.00 1029.6
20260505164030 0 0.0 0.0 0.00 0.00 0.00 1029.6
20260505163025 58 0 4.0 6.0 0.00 0.00 0.00 85 1029.8
20260505162021 58 351 5.0 8.0 0.00 0.00 0.00 85 1029.8
20260505161018 58 356 7.0 11.0 0.00 0.00 0.00 84 1029.9
20260505160114 59 357 11.0 17.0 0.00 0.00 0.00 82 1030.0
20260505153104 60 12 8.0 14.0 0.00 0.00 0.00 81 1030.2
20260505152101 60 349 9.0 18.0 0.00 0.00 0.00 81 1030.3
20260505151057 59 360 9.0 14.0 0.00 0.00 0.00 81 1030.5
20260505130112 60 1 8.0 13.0 0.00 0.00 0.00 74 1031.3
20260505124105 60 356 7.0 12.0 0.00 0.00 0.00 75 1031.4
20260505123104 60 12 7.0 11.0 0.00 0.00 0.00 76 1031.4
20260505122058 59 26 8.0 13.0 0.00 0.00 0.00 77 1031.3
20260505121056 59 5 6.0 10.0 0.00 0.00 0.00 80 1031.3
20260505120053 58 23 6.0 9.0 0.00 0.00 0.00 80 1031.3
20260505115108 58 30 7.0 11.0 0.00 0.00 0.00 80 1031.2
20260505114105 58 25 5.0 8.0 0.00 0.00 0.00 80 1031.3
20260505113041 58 21 3.0 8.0 0.00 0.00 0.00 78 1031.4
20260505112038 59 16 6.0 13.0 0.00 0.00 0.00 75 1031.6
20260505111056 60 356 8.0 15.0 0.00 0.00 0.00 72 1031.7
20260505102019 60 5 5.0 9.0 0.00 0.00 0.00 71 1031.9
20260505101117 60 3 5.0 9.0 0.00 0.00 0.00 71 1031.8
20260505100111 60 14 5.0 8.0 0.00 0.00 0.00 71 1031.8
20260505095110 60 10 4.0 8.0 0.00 0.00 0.00 71 1031.7
20260505094104 60 11 6.0 11.0 0.00 0.00 0.00 71 1031.8
20260505093122 59 349 6.0 12.0 0.00 0.00 0.00 71 1031.8
20260505092057 59 0 4.0 6.0 0.00 0.00 0.00 71 1031.6
20260505091056 60 358 4.0 7.0 0.00 0.00 0.00 71 1031.7
20260505090051 60 3 5.0 8.0 0.00 0.00 0.00 71 1031.7
20260505085050 59 7 4.0 8.0 0.00 0.00 0.00 71 1031.7
20260505084045 59 8 5.0 7.0 0.00 0.00 0.00 72 1031.6
20260505083101 59 5 4.0 7.0 0.00 0.00 0.00 73 1031.6
20260505082036 58 3 3.0 5.0 0.00 0.00 0.00 73 1031.8
20260505081033 58 23 2.0 4.0 0.00 0.00 0.00 72 1031.7
20260505080030 58 58 4.0 7.0 0.00 0.00 0.00 72 1031.7
20260505075029 59 43 4.0 8.0 0.00 0.00 0.00 72 1031.8
20260505074025 59 60 3.0 7.0 0.00 0.00 0.00 72 1031.8
20260505073025 59 21 3.0 5.0 0.00 0.00 0.00 72 1031.8
20260505072021 58 24 4.0 8.0 0.00 0.00 0.00 74 1031.8
20260505071020 58 35 4.0 9.0 0.00 0.00 0.00 77 1031.8
20260505070018 57 20 4.0 7.0 0.00 0.00 0.00 80 1031.8
20260505065115 57 36 4.0 6.0 0.00 0.00 0.00 81 1031.8
20260505064133 56 13 3.0 5.0 0.00 0.00 0.00 80 1031.8
20260505063103 56 45 1.0 3.0 0.00 0.00 0.00 79 1031.8
20260505062103 56 45 2.0 3.0 0.00 0.00 0.00 78 1031.8
20260505061114 56 26 2.0 4.0 0.00 0.00 0.00 75 1031.7
20260505060054 56 69 2.0 4.0 0.00 0.00 0.00 72 1031.6
20260505055052 57 50 2.0 3.0 0.00 0.00 0.00 70 1031.5
20260505054042 59 82 1.0 3.0 0.00 0.00 0.00 64 1031.4
20260505053039 64 128 1.0 3.0 0.00 0.00 0.00 56 1031.5
20260505052037 69 135 1.0 2.0 0.00 0.00 0.00 53 1031.5
20260505051050 71 135 2.0 3.0 0.00 0.00 0.00 56 1031.5
20260505041103 61 279 1.0 4.0 0.00 0.00 0.00 72 1031.8
20260505040101 61 310 3.0 4.0 0.00 0.00 0.00 72 1031.8
20260505035054 61 310 4.0 6.0 0.00 0.00 0.00 72 1031.8
20260505034051 61 315 5.0 8.0 0.00 0.00 0.00 71 1031.9
20260505033041 61 312 7.0 9.0 0.00 0.00 0.00 69 1031.8
20260505032041 64 319 9.0 12.0 0.00 0.00 0.00 60 1031.8
20260505031028 68 311 5.0 11.0 0.00 0.00 0.00 54 1031.7
20260505030019 68 314 4.0 11.0 0.00 0.00 0.00 53 1031.7
20260505025116 67 320 5.0 7.0 0.00 0.00 0.00 52 1031.8
20260505024109 68 324 5.0 10.0 0.00 0.00 0.00 51 1031.8
20260505023104 70 345 4.0 8.0 0.00 0.00 0.00 51 1031.8
20260505022054 69 320 3.0 9.0 0.00 0.00 0.00 53 1032.0
20260505021051 67 349 4.0 8.0 0.00 0.00 0.00 55 1032.1
20260505020049 66 324 6.0 8.0 0.00 0.00 0.00 54 1032.3
20260505015041 66 333 4.0 6.0 0.00 0.00 0.00 53 1032.3
20260505014039 65 318 6.0 8.0 0.00 0.00 0.00 52 1032.4
20260505013030 66 319 5.0 9.0 0.00 0.00 0.00 51 1032.5
20260505012027 67 315 6.0 9.0 0.00 0.00 0.00 50 1032.7
20260505011017 68 322 5.0 8.0 0.00 0.00 0.00 49 1032.7
20260505010115 69 329 5.0 11.0 0.00 0.00 0.00 50 1032.9
20260505005128 68 289 4.0 7.0 0.00 0.00 0.00 50 1033.0
20260505004105 66 319 6.0 10.0 0.00 0.00 0.00 51 1033.1
20260505003102 67 342 6.0 9.0 0.00 0.00 0.00 49 1033.3
20260505002055 67 328 5.0 8.0 0.00 0.00 0.00 50 1033.5
20260505001051 67 325 3.0 7.0 0.00 0.00 0.00 50 1033.6
20260505000041 65 351 7.0 11.0 0.00 0.00 0.00 50 1033.9
20260504235038 67 325 5.0 11.0 0.00 0.00 0.00 47 1034.0
20260504234030 68 316 4.0 8.0 0.00 0.00 0.00 45 1034.2
20260504233027 69 332 3.0 7.0 0.00 0.00 0.00 45 1034.4
20260504232027 67 334 3.0 5.0 0.00 0.00 0.00 46 1034.4
20260504231016 69 330 4.0 7.0 0.00 0.00 0.00 42 1034.6